Regional Weather Roundup
Issued by NWS

Home | Current Version | Previous Version | Graphics & Text | Print | Product List | Glossary Off
Versions: 1 2 3 4 5 6 7 8 9 10 11 12 13 14 15 16 17 18 19 20 21 22 23 24 25 26 27 28 29 30 31 32 33 34 35 36 37 38 39 40 41 42 43 44 45 46 47 48 49 50

000
ASUS43 KMKX 180810
RWRWI

WISCONSIN REGIONAL WEATHER ROUNDUP
NATIONAL WEATHER SERVICE MILWAUKEE/SULLIVAN WI
200 AM CST SUN FEB 18 2018

NOTE: "FAIR" INDICATES FEW OR NO CLOUDS BELOW 12,000 FEET WITH NO
SIGNIFICANT WEATHER AND/OR OBSTRUCTIONS TO VISIBILITY.

WIZ001-002-006>008-014>016-023>028-180900-
NORTHWEST WISCONSIN

CITY           SKY/WX    TMP DP  RH WIND       PRES   REMARKS
SUPERIOR ARPT  FAIR       8   2  79 S6        30.06R WCI  -2
ASHLAND        FAIR      10   4  76 S3        30.06S
HAYWARD        FAIR       8   3  80 CALM      30.05R
SIREN          FAIR       8   2  76 CALM      30.06S
CUMBERLAND     FAIR      10   1  67 CALM      30.03F
RICE LAKE      FAIR       7   3  82 CALM      30.06F
CHETEK         FAIR      10   5  79 CALM      30.05F
LADYSMITH      FAIR       9   4  80 CALM      30.06R
EAU CLAIRE     FAIR      11   6  81 CALM      30.07S
MENOMONIE      FAIR      10   4  76 E5        30.08R WCI   2
NEW RICHMOND   FAIR       7   1  77 S6        30.09R WCI  -4
OSCEOLA        FAIR      10   4  78 CALM      30.11R
$$

WIZ003>005-009-010-017-018-180900-
NORTH CENTRAL WISCONSIN

CITY           SKY/WX    TMP DP  RH WIND       PRES   REMARKS
MANITOWISH WTR FAIR      12   4  68 NW5       30.00R WCI   5
ARBOR VITAE    FAIR      17  10  74 N3        30.00R
WOODRUFF       FAIR      17  10  74 N3        30.00R
RHINELANDER    FAIR      16   8  71 W7        30.01R WCI   6
EAGLE RIVER    FAIR      10   5  78 W3        30.00R
LAND O LAKES   FAIR      15   6  70 W5        30.01R WCI   7
PHILLIPS       FAIR       9   4  80 CALM      30.02R
TOMAHAWK       FAIR      13   6  74 W3        30.04R
MEDFORD        FAIR      11   5  76 W3        30.03S
MERRILL        FAIR      13  10  85 CALM      30.05R
$$

WIZ029-030-035-036-043>047-180900-
CENTRAL WISCONSIN

CITY           SKY/WX    TMP DP  RH WIND       PRES   REMARKS
WAUSAU         FAIR      15  10  80 N5        30.04R WCI   8
MOSINEE        FAIR      18  12  79 W7        30.07R WCI   8
MARSHFIELD     FAIR      11   8  88 W5        30.04S WCI   3
STEVENS POINT  FAIR      18  13  79 W3        30.07S
WAUPACA        FAIR      21  16  79 SW5       30.11R WCI  15
WAUTOMA        FAIR      21  17  84 SW5       30.12R WCI  15
WISC RAPIDS    FAIR      18  12  77 CALM      30.09S
CAMP DOUGLAS   FAIR      15  13  91 CALM      30.10R
$$

WIZ011>013-019>022-031-037>040-048>050-180900-
NORTHEAST WISCONSIN

CITY           SKY/WX    TMP DP  RH WIND       PRES   REMARKS
ANTIGO         FAIR      14  11  87 W7        30.04R WCI   4
SHAWANO        FAIR      23  18  82 CALM      30.08R
OCONTO         FAIR      20  18  90 SW6       30.09R WCI  13
STURGEON BAY   FAIR      23  20  88 SW10      30.08R WCI  12
GREEN BAY      FAIR      21  16  81 W3        30.08R
MANITOWOC      FAIR      23  20  88 W9        30.11R WCI  13
APPLETON       FAIR      21  18  86 W9        30.08R WCI  11
CLINTONVILLE   FAIR      15  11  83 CALM      30.08R
OSHKOSH        FAIR      22  18  85 SW5       30.11R WCI  16
$$

WIZ032>034-041-042-053>061-180900-
SOUTHWEST WISCONSIN

CITY           SKY/WX    TMP DP  RH WIND       PRES   REMARKS
LA CROSSE      FAIR      14  12  92 SE5       30.12R WCI   6
SPARTA         FAIR      10   8  94 E3        30.12R
VIROQUA        FAIR      21  21  99 W6        30.09S WCI  13
BOSCOBEL       FAIR      15  12  88 CALM      30.16R
PRAIRIE DU CHI FAIR      19  17  90 SE3       30.15S
PLATTEVILLE    FAIR      18  18 100 S5        30.15S WCI  11
$$

WIZ056-057-062-063-064-067-068-180900-
SOUTH CENTRAL WISCONSIN

CITY           SKY/WX    TMP DP  RH WIND       PRES   REMARKS
REEDSBURG      FAIR      22  19  87 CALM      30.12R
BARABOO/DELLS  FAIR      21  18  86 SW5       30.12R WCI  15
LONE ROCK      FAIR      15  14  95 CALM      30.16R FOG
MINERAL POINT  FAIR      23  23 100 S3        30.14R FOG
MADISON        FAIR      21  17  84 CALM      30.15R
MIDDLETON      FAIR      23  21  91 S3        30.16R
WATERTOWN      FAIR      20  20 100 CALM      30.15R
MONROE         FAIR      23  21  93 SW12      30.15R FOG     WCI  12
JANESVILLE     FAIR      21  21 100 SW9       30.19R WCI  11
$$

WIZ051-052-058>065-066-070>072-180900-
SOUTHEAST WISCONSIN

CITY           SKY/WX    TMP DP  RH WIND       PRES   REMARKS
MILWAUKEE      FAIR      24  21  88 SW6       30.17R WCI  17
WAUKESHA       FAIR      23  19  86 SW8       30.16R WCI  14
MILWAUKEE/TIMM FAIR      23  19  86 SW6       30.17R WCI  16
RACINE         FAIR      25  21  85 SW7       30.19R WCI  17
BURLINGTON     FAIR      22  19  89 SW7       30.18R WCI  13
KENOSHA        FAIR      24  19  81 SW10      30.18R WCI  14
FOND DU LAC    FAIR      21  17  84 SW6       30.13R WCI  13
SHEBOYGAN      FAIR      25  21  85 W12       30.13R WCI  14
WEST BEND      FAIR      25  23  93 SW5       30.14R WCI  19
JUNEAU         FAIR      18  17  95 SW5       30.14R WCI  11
$$

LSZ147-162-180900-
LAKE SUPERIOR

STATION/POSITION TIME  TEMP    WIND        PRES    WAVE
                       AIR SEA DIR/SP/G            HT/PER
                 (UTC) (F)     (DEG/KT/KT) (MB)    (FT/S)
DEVILS ISLAND    0800   21     280/ 14/ 17 1018.8R
SAXON HARBOR     0740   13     190/  2/  3 1017.9R
$$

LMZ867-665-643>646-180900-
LAKE MICHIGAN

STATION/POSITION TIME  TEMP    WIND        PRES    WAVE
                       AIR SEA DIR/SP/G            HT/PER
                 (UTC) (F)     (DEG/KT/KT) (MB)    (FT/S)
NORTHPORT PIER   0740   23                 1017.6R
KEWAUNEE LAKESHO 0742   25     260/  6/  8 1018.2R
SHEBOYGAN LAKESH 0800   26     250/  5/  6 1021.4R
PORT WASHINGTON  0730   26     250/  4/  6 1021.7R
MILWAUKEE LAKESH 0750   27     230/  7/  7   N/A
KENOSHA   LAKESH 0800   26     250/  7/ 11 1022.4
$$

TC  - TEMPERATURE IN CELSIUS
VSB - VISIBILITY IN STATUTE MILES
WCI - WIND CHILL INDEX
HX  - HEAT INDEX




USA.gov is the U.S. government's official web portal to all federal, state and local government web resources and services.